Flag for Germany Weather past 2 weeks in Frechen, North Rhine-Westphalia, Germany

Now
50 °F

Passing clouds.


Feels Like: 50 °F
Forecast: 42 / 54 °F
Wind: 2 mph from Southeast

Location: Noervenich

Current Time: Dec 18, 2014 at 5:44:07 AM

Latest Report: Dec 18, 2014 at 4:20 AM


Visibility: N/A

Pressure: 29.83 "Hg

Humidity: 88%

Dew point: 46 °F

Location of FrechenLocation

Historic Weather in Frechen — Graph

°F

Frechen temperature yesterday

Maximum temperature yesterday: 50 °F (at 9:20 PM)
Minimum temperature yesterday: 37 °F (at 3:20 AM)
Average temperature yesterday: 44 °F

Past Weeks' High & Low Weather Summary

 TemperatureHumidityPressure
High52 °F (Dec 12, 1:20 PM)100% (Dec 6, 9:20 PM)30.39 "Hg (Dec 6, 9:20 PM)
Low30 °F (Dec 3, 7:20 PM)61% (Dec 7, 1:20 PM)29.45 "Hg (Dec 12, 2:04 PM)
Average40 °F86%29.98 "Hg
* Reported Dec 3 4:20 AM — Dec 18 4:20 AM, Frechen, Weather by CustomWeather, © 2014

Note: Actual official high and low records may vary slightly from our data, if they occured in-between our weather recording intervals... More about our weather records

Advertising

Frechen weather history for previous 24 hours

 ConditionsComfort  
Time TempWeatherWind HumidityBarometerVisibility
4:20 AM
Dec 18
50 °FPassing clouds.2 mph88%29.83 "HgN/A
3:20 AM50 °FPassing clouds.2 mph94%29.83 "HgN/A
2:20 AM50 °FPartly cloudy.3 mph94%29.86 "HgN/A
1:20 AM50 °FPartly cloudy.6 mph94%29.86 "HgN/A
12:20 AM50 °FDrizzle. Fog.3 mph94%29.86 "Hg3 mi
11:20 PM
Dec 17
48 °FDrizzle. Fog.6 mph100%29.83 "Hg3 mi
10:20 PM50 °FDrizzle. Fog.7 mph94%29.80 "Hg2 mi
9:20 PM50 °FDrizzle. Fog.7 mph94%29.80 "Hg3 mi
8:20 PM48 °FDrizzle. Fog.5 mph100%29.77 "Hg2 mi
7:50 PM48 °FFog.5 mph100%29.77 "Hg3 mi
7:20 PM48 °FPassing clouds.5 mph94%29.74 "Hg4 mi
6:20 PM48 °FPassing clouds.7 mph94%29.74 "Hg4 mi
5:50 PM48 °FPassing clouds.8 mph94%29.71 "Hg5 mi
5:20 PM48 °FPassing clouds.7 mph94%29.71 "HgN/A
4:20 PM46 °FBroken clouds.10 mph93%29.68 "HgN/A
3:47 PM46 °FDrizzle. Fog.13 mph93%29.65 "Hg3 mi
3:20 PM46 °FDrizzle. Fog.12 mph93%29.65 "Hg2 mi
2:50 PM46 °FDrizzle. Fog.12 mph93%29.65 "Hg2 mi
2:20 PM46 °FScattered showers. Partly sunny.12 mph87%29.62 "HgN/A
1:20 PM46 °FPartly sunny.8 mph82%29.62 "HgN/A
12:20 PM45 °FBroken clouds.10 mph81%29.62 "HgN/A
11:20 AM43 °FLight rain. Broken clouds.8 mph81%29.65 "Hg5 mi
10:20 AM43 °FPartly sunny.7 mph76%29.65 "HgN/A
9:20 AM43 °FPartly sunny.7 mph76%29.71 "HgN/A
8:20 AM41 °FLight rain. Partly cloudy.5 mph81%29.74 "HgN/A
7:20 AM41 °FPartly cloudy.6 mph76%29.77 "HgN/A
6:20 AM41 °FMostly cloudy.5 mph76%29.83 "HgN/A
5:20 AM39 °FPassing clouds.5 mph81%29.86 "HgN/A
Weather by CustomWeather, © 2014

See weather overviewHow to use our weather pages